TimeEDT,TemperatureF,Dew PointF,Humidity,Sea Level PressureIn,VisibilityMPH,Wind Direction,Wind SpeedMPH,Gust SpeedMPH,PrecipitationIn,Events,Conditions,WindDirDegrees,DateUTC
12:15 AM,55.8,47.7,74,30.02,10.0,Calm,Calm,-,N/A,,Clear,0,2014-04-25 04:15:00
12:35 AM,55.9,47.7,74,30.02,10.0,Calm,Calm,-,N/A,,Clear,0,2014-04-25 04:35:00
1:15 AM,55.2,48.4,78,30.00,10.0,Calm,Calm,-,N/A,,Clear,0,2014-04-25 05:15:00
1:35 AM,55.6,49.1,79,29.99,10.0,Calm,Calm,-,N/A,,Clear,0,2014-04-25 05:35:00
1:55 AM,54.1,49.3,84,29.99,10.0,Calm,Calm,-,N/A,,Clear,0,2014-04-25 05:55:00
2:15 AM,54.5,49.6,84,29.98,10.0,Calm,Calm,-,N/A,,Clear,0,2014-04-25 06:15:00
2:35 AM,54.1,50.0,86,29.97,10.0,Calm,Calm,-,N/A,,Clear,0,2014-04-25 06:35:00
2:55 AM,54.5,50.5,86,29.97,10.0,Calm,Calm,-,N/A,,Clear,0,2014-04-25 06:55:00
3:15 AM,53.1,50.0,89,29.97,10.0,Calm,Calm,-,N/A,,Clear,0,2014-04-25 07:15:00
3:35 AM,53.1,50.2,90,29.98,10.0,Calm,Calm,-,N/A,,Clear,0,2014-04-25 07:35:00
3:55 AM,53.1,50.7,92,29.98,10.0,Calm,Calm,-,N/A,,Clear,0,2014-04-25 07:55:00
4:15 AM,52.2,50.4,94,29.98,10.0,Calm,Calm,-,N/A,,Clear,0,2014-04-25 08:15:00
4:35 AM,52.3,51.3,96,29.97,10.0,Calm,Calm,-,N/A,,Clear,0,2014-04-25 08:35:00
4:55 AM,53.1,52.2,97,29.96,10.0,Calm,Calm,-,N/A,,Clear,0,2014-04-25 08:55:00
5:15 AM,52.2,51.1,96,29.96,10.0,Calm,Calm,-,N/A,,Clear,0,2014-04-25 09:15:00
5:35 AM,53.1,52.2,97,29.96,7.0,SE,3.5,-,N/A,,Clear,130,2014-04-25 09:35:00
5:55 AM,54.9,54.5,99,29.96,7.0,Calm,Calm,-,N/A,,Clear,0,2014-04-25 09:55:00
6:15 AM,54.9,54.5,99,29.97,5.0,Calm,Calm,-,N/A,,Clear,0,2014-04-25 10:15:00
6:35 AM,54.5,54.3,99,29.97,7.0,Calm,Calm,-,N/A,,Scattered Clouds,0,2014-04-25 10:35:00
6:55 AM,55.0,54.9,99,29.96,5.0,Calm,Calm,-,N/A,,Scattered Clouds,0,2014-04-25 10:55:00
7:15 AM,56.7,56.7,100,29.96,5.0,Calm,Calm,-,N/A,,Clear,0,2014-04-25 11:15:00
7:35 AM,57.7,57.7,100,29.96,5.0,SE,3.5,-,N/A,,Clear,130,2014-04-25 11:35:00
7:55 AM,59.7,59.0,97,29.96,7.0,SE,3.5,-,N/A,,Clear,140,2014-04-25 11:55:00
8:15 AM,62.1,60.6,95,29.95,7.0,SE,4.6,-,N/A,,Clear,140,2014-04-25 12:15:00
8:35 AM,64.6,62.1,92,29.95,10.0,SE,5.8,-,N/A,,Scattered Clouds,140,2014-04-25 12:35:00
8:55 AM,67.1,63.5,88,29.94,10.0,SE,8.1,-,N/A,,Scattered Clouds,140,2014-04-25 12:55:00
9:15 AM,69.8,64.4,83,29.94,10.0,SSE,8.1,-,N/A,,Scattered Clouds,160,2014-04-25 13:15:00
9:35 AM,71.6,64.4,78,29.93,10.0,SE,8.1,-,N/A,,Clear,140,2014-04-25 13:35:00
9:55 AM,73.4,65.3,76,29.93,10.0,SSE,8.1,-,N/A,,Scattered Clouds,160,2014-04-25 13:55:00
10:15 AM,75.2,65.5,72,29.93,10.0,South,6.9,-,N/A,,Scattered Clouds,180,2014-04-25 14:15:00
10:35 AM,75.7,64.8,69,29.92,10.0,SSE,9.2,-,N/A,,Scattered Clouds,160,2014-04-25 14:35:00
10:55 AM,77.0,64.8,66,29.92,10.0,South,8.1,-,N/A,,Scattered Clouds,170,2014-04-25 14:55:00
11:15 AM,77.9,63.3,61,29.91,10.0,SSW,12.7,17.3,N/A,,Scattered Clouds,200,2014-04-25 15:15:00
11:35 AM,80.1,63.0,56,29.91,10.0,South,11.5,18.4,N/A,,Scattered Clouds,180,2014-04-25 15:35:00
11:55 AM,79.0,62.4,57,29.89,10.0,South,12.7,17.3,N/A,,Scattered Clouds,190,2014-04-25 15:55:00
12:15 PM,80.2,62.1,54,29.88,10.0,South,11.5,20.7,N/A,,Scattered Clouds,170,2014-04-25 16:15:00
12:35 PM,80.2,62.2,54,29.87,10.0,South,13.8,21.9,N/A,,Mostly Cloudy,170,2014-04-25 16:35:00
12:55 PM,81.0,62.8,54,29.86,10.0,South,10.4,16.1,N/A,,Mostly Cloudy,180,2014-04-25 16:55:00
1:15 PM,80.1,63.1,56,29.84,10.0,South,16.1,19.6,N/A,,Mostly Cloudy,170,2014-04-25 17:15:00
1:55 PM,79.3,63.7,59,29.82,10.0,South,13.8,17.3,N/A,,Mostly Cloudy,170,2014-04-25 17:55:00
2:15 PM,79.0,64.6,61,29.80,10.0,South,12.7,20.7,N/A,Rain,Rain,170,2014-04-25 18:15:00
2:35 PM,78.4,65.8,65,29.78,10.0,SSE,10.4,18.4,N/A,,Scattered Clouds,160,2014-04-25 18:35:00
2:55 PM,78.8,65.5,64,29.78,10.0,South,10.4,18.4,N/A,Rain,Light Rain,170,2014-04-25 18:55:00
3:15 PM,80.8,65.1,59,29.78,10.0,South,13.8,20.7,N/A,,Mostly Cloudy,170,2014-04-25 19:15:00
3:35 PM,76.3,70.2,81,29.76,10.0,South,4.6,-,0.02,,Mostly Cloudy,170,2014-04-25 19:35:00
3:55 PM,78.6,68.2,70,29.75,10.0,South,10.4,-,0.02,,Scattered Clouds,170,2014-04-25 19:55:00
4:15 PM,80.2,66.6,63,29.73,10.0,South,11.5,-,N/A,,Scattered Clouds,170,2014-04-25 20:15:00
4:35 PM,80.4,64.2,58,29.72,10.0,South,13.8,24.2,N/A,,Scattered Clouds,190,2014-04-25 20:35:00
4:55 PM,79.3,63.7,59,29.71,10.0,South,9.2,-,N/A,,Mostly Cloudy,170,2014-04-25 20:55:00
5:15 PM,80.1,63.7,57,29.71,10.0,South,10.4,-,N/A,,Overcast,180,2014-04-25 21:15:00
5:35 PM,78.8,62.4,57,29.71,10.0,South,9.2,16.1,N/A,,Overcast,180,2014-04-25 21:35:00
5:55 PM,78.4,62.1,57,29.71,10.0,South,6.9,-,N/A,,Overcast,190,2014-04-25 21:55:00
6:15 PM,78.8,61.7,56,29.71,10.0,South,8.1,16.1,N/A,,Mostly Cloudy,190,2014-04-25 22:15:00
6:35 PM,78.1,61.2,56,29.71,10.0,SSW,10.4,16.1,N/A,,Scattered Clouds,200,2014-04-25 22:35:00
6:55 PM,77.0,61.0,58,29.71,10.0,South,9.2,-,N/A,,Scattered Clouds,180,2014-04-25 22:55:00
7:15 PM,76.5,60.8,58,29.70,10.0,South,6.9,-,N/A,,Scattered Clouds,180,2014-04-25 23:15:00
7:35 PM,75.2,60.8,61,29.71,10.0,South,6.9,-,N/A,,Scattered Clouds,190,2014-04-25 23:35:00
7:55 PM,73.6,60.8,64,29.72,10.0,SSW,4.6,-,N/A,,Clear,200,2014-04-25 23:55:00
8:15 PM,75.0,59.2,58,29.73,10.0,SW,5.8,-,N/A,,Clear,230,2014-04-26 00:15:00
8:35 PM,75.7,59.0,56,29.74,10.0,WSW,6.9,-,N/A,,Scattered Clouds,240,2014-04-26 00:35:00
8:55 PM,75.4,59.0,57,29.76,10.0,West,5.8,-,N/A,,Scattered Clouds,260,2014-04-26 00:55:00
9:15 PM,75.2,58.3,56,29.79,10.0,NW,9.2,17.3,N/A,,Mostly Cloudy,320,2014-04-26 01:15:00
9:35 PM,74.3,54.9,51,29.81,10.0,NW,9.2,-,N/A,,Mostly Cloudy,320,2014-04-26 01:35:00
9:55 PM,73.6,54.3,51,29.81,10.0,NW,6.9,-,N/A,,Overcast,320,2014-04-26 01:55:00
10:15 PM,73.4,54.3,51,29.83,10.0,NW,5.8,-,N/A,,Overcast,310,2014-04-26 02:15:00
10:35 PM,72.0,54.0,53,29.83,10.0,NW,3.5,-,N/A,,Mostly Cloudy,310,2014-04-26 02:35:00
10:55 PM,70.7,54.1,56,29.83,10.0,NW,3.5,-,N/A,,Mostly Cloudy,310,2014-04-26 02:55:00
11:15 PM,70.7,53.6,55,29.84,10.0,NW,4.6,-,N/A,,Scattered Clouds,310,2014-04-26 03:15:00
11:35 PM,69.8,53.8,57,29.84,10.0,WNW,4.6,-,N/A,,Mostly Cloudy,300,2014-04-26 03:35:00